Regional Weather Roundup
Issued by NWS Midland/Odessa, TX

Skip options and go directly to product.
Home | Oldest Version | Previous Version | Current Version | All | Graphics & Text | Save Text | Print | Product List | Glossary On

Skip product version selection by date and time.   
834
ASUS44 KMAF 311410
RWRMAF
MIDLAND AREA WEATHER ROUNDUP
NATIONAL WEATHER SERVICE MIDLAND TX
800 AM CST SAT JAN 31 2015

...IN SOUTHWEST TEXAS AND SOUTHEAST NEW MEXICO...

CITY           SKY/WX    TMP DP  RH WIND       PRES   REMARKS
ALPINE         CLOUDY    45  45  98 SE9       30.02S
ANDREWS        RAIN      40  40 100 SE7       30.00S WCI  35
ARTESIA        FOG       39  39 100 NW3       29.99R VSB 3/4
BIG SPRING     CLOUDY    43  41  91 E14       30.03F WCI  36
CARLSBAD       CLOUDY    41  39  93 NW6       29.97R FOG     WCI  37
DRYDEN           N/A     48  47  96 E9        30.00F
FORT STOCKTON  CLOUDY    46  45  96 S7        29.98R
GUAD PASS      FOG       37  37 100 E6        29.96R VSB 3/4 WCI  32
HOBBS          CLOUDY    39  39 100 SE5       29.99S WCI  36
MARFA          CLOUDY    45  45 100 SE12      29.98R VSB 1/2 WCI  39
MIDLAND AIRPK  DRIZZLE   44  44 100 SE7       30.00S
MIDLAND INTL   LGT RAIN  44  43  96 SE8       29.98S WCI  39
ODESSA         LGT RAIN  45  43  93 S13       29.99S WCI  39
PECOS          CLOUDY    45  44  97 CALM      29.98S FOG
PRESIDIO       FOG       48  47  99 W5        29.95R VSB<1/4
SEMINOLE       DRIZZLE   39  39  99 SE8       30.00S WCI  34
SNYDER         RAIN     N/A N/A N/A CALM      30.07F
WINK           CLOUDY    46  42  86 SE10      29.96F
$$
...OTHER STATIONS IN TEXAS...

CITY           SKY/WX    TMP DP  RH WIND       PRES   REMARKS
ABILENE        CLOUDY    48  35  60 SE14      30.08S
AMARILLO       MIX PCPN  33  32  96 SE9       30.03F FOG     WCI  25
AUSTIN         CLOUDY    49  42  77 NE5       30.17R
BROWNSVILLE    CLOUDY    63  61  93 E5        30.08R
CORPUS CHRISTI MOCLDY    59  58  96 SE5       30.10R FOG
DALLAS FTW     CLOUDY    47  32  56 SE13      30.20S
DEL RIO        LGT RAIN  50  48  93 E10       30.03F FOG
EL PASO        CLOUDY    45  42  89 N6        29.90R
HOUSTON INT    MOCLDY    46  38  73 E9        30.22S
LUBBOCK        LGT RAIN  36  36 100 SE9       30.01S FOG     WCI  29
SAN ANGELO     RAIN      48  46  93 SE5       30.05R
SAN ANTONIO    LGT RAIN  51  49  92 E7        30.13S VSB 1
WACO           CLOUDY    46  34  62 SE9       30.20R
WICHITA FALLS  NOT AVBL
$$
...OTHER LOCATIONS IN NEW MEXICO...

CITY           SKY/WX    TMP DP  RH WIND       PRES   REMARKS
ALAMAGORDO     MIX PCPN  41  41 100 NE3       29.92S
ALBUQUERQUE    LGT RAIN  33  33 100 NW6       29.93S VSB 3/4 WCI  28
CANNON AFB     LGT RAIN  34  32  93 CALM      29.99F FOG
CLOVIS         CLOUDY    34  30  86 SE8       29.99F WCI  27
HOLLOMAN AFB   DRIZZLE   41  41 100 NW3       29.91S
ROSWELL        CLOUDY    38  37  97 CALM      29.98S FOG
RUIDOSO        FOG       28  28 100 CALM      29.95R VSB 1/2
SANTA FE       LGT SNOW  29  27  92 SE5       29.92F FOG     WCI  24
TRUTH OR CONSE CLOUDY    41  40  96 CALM      29.90R
TUCUMCARI      CLOUDY    36  34  92 S5        29.98S WCI  32
$$

USA.gov is the U.S. government's official web portal to all federal, state and local government web resources and services.